Weather
South African Flight Training AcademyBookingsEnt 1055(rendered 2017-01-22 01:43:08) Member: Guest [54.204.185.160- private]
Go back one day  Today  Go forward one day
00h00-24h00  00h00-12h00  12h00-24h00  05h00-22h00  08h00-18h00   Bookingsheet Key 

Sunrise: 06:55B

Full view Bookings for Sunday, 22nd January 2017

Sunset: 17:44B

 05h0006h0007h0008h0009h0010h0011h0012h0013h0014h0015h0016h0017h0018h0019h0020h0021h00

ZS-EVM

Piper 4 Seater Fixed Gear Fixed Pitch

ZS-FHF

Piper 4 Seater Fixed Gear Fixed Pitch

ZS-IHJ

Raytheon Private Aircraft

ZS-JBP

Cessna 4 Seater Fixed Gear/Pitch

ZS-JPH

Beechcraft Private Aircraft

ZS-JVH

Cessna 4 Seater Fixed Gear/Pitch

ZS-KXO

Cessna 4 Seater Trainer

ZS-KZE

Beechcraft Private Aircraft

ZS-MAE

Cessna 4 Seater Fixed Gear/Pitch

ZS-MPF

Cessna 4 Seater Fixed Gear/Pitch

ZS-NFS

Cessna 4 Seater Fixed Gear/Pitch

ZS-OFV

Cessna 4 Seater Fixed Gear/Pitch

ZS-OHU

Piper 4 Seater Fixed Gear Fixed Pitch

ZS-PNV

Cessna 2 Seater Trainer

ZS-PSL

Cessna 4 Seater Fixed Gear/Pitch

ZS-PZD

Cessna 2 Seater Trainer

ZS-PZF

CESSNA Cessna 182T - Private

ZS-RIO

CESSNA Cessna 182T - Private

ZS-SAA

Cessna 4 Seater Fixed Gear/Pitch

ZS-SAE

Cessna 4 Seater Fixed Gear/Pitch

ZS-SCP

Cessna 2 Seater Trainer

ZS-SSG

Cessna 2 Seater Trainer

ZS-SVC

Cessna 4 Seater Fixed Gear/Pitch

ZS-DWC

Cessna 2 Seater Trainer

FAOR METAR 212130Z 03008KT 9999 FEW009 17/15 Q1027 NOSIG
FALA METAR 212100Z AUTO 32004KT //// ////// 18/15 Q1026

GASSER ABDO

GROUND INSTRUCTOR

WASEEM BADROODIEN

INSTRUCTOR

ZAINAB BHABHA

INSTRUCTOR

WERNER BOTHA

INSTRUCTOR

VUMILE DLAMINI

INSTRUCTOR

JACO DREYER

INSTRUCTOR, CFI

JACQUES GALE

INSTRUCTOR

AVINASH LOTCHER

INSTRUCTOR

SIMBARASHE MAVHERA

INSTRUCTOR

TSHWANELO MOROOSELE

INSTRUCTOR

MLONDI MTHETHWA

INSTRUCTOR

XABISO NTLOKO

INSTRUCTOR

TAFADZWA NYAKUDYA

INSTRUCTOR

DANIEL VAN DER MERWE

INSTRUCTOR, CGI

NTULI ZELDAH

INSTRUCTOR

FAOR TAF 211600Z 2118/2224 06012KT 9999 SCT040    PROB40 TEMPO 2118/2121 5000 TSRA FEW035CB    BECMG 2121/2123 BKN010    TEMPO 2123/2206 3000 BR BKN005    FM220700 04006KT 9999 BKN010    BECMG 2208/2210 SCT035    TX25/2212ZTN14/2203Z
FALA TAF 211600Z 2118/2218 06010KT 9999 SCT045    PROB40 TEMPO 2118/2121 5000 TSRA FEW040CB    BECMG 2121/2123 BKN015    TEMPO 2123/2206 5000 BR BKN008    FM220700 04006KT 9999 BKN015    BECMG 2208/2210 SCT040    TX28/2212ZTN16/2203Z

Briefing1

Briefing room 1

 05h0006h0007h0008h0009h0010h0011h0012h0013h0014h0015h0016h0017h0018h0019h0020h0021h00

index.php last modified on Wed 13 Jun 2012 7:48 PM